TimeHST,TemperatureF,Dew PointF,Humidity,Sea Level PressureIn,VisibilityMPH,Wind Direction,Wind SpeedMPH,Gust SpeedMPH,PrecipitationIn,Events,Conditions,WindDirDegrees,DateUTC
12:58 AM,67.1,64.0,90,29.95,10.0,Variable,2.3,-,N/A,,Overcast,0,2014-02-09 10:58:00
1:33 AM,66.2,62.6,88,29.97,10.0,NW,3.5,-,N/A,,Scattered Clouds,310,2014-02-09 11:33:00
1:58 AM,65.5,63.1,92,29.94,10.0,WNW,4.6,-,N/A,,Clear,300,2014-02-09 11:58:00
2:58 AM,65.3,63.0,92,29.94,10.0,NNW,6.9,-,N/A,,Partly Cloudy,330,2014-02-09 12:58:00
3:58 AM,65.8,63.5,92,29.92,10.0,NW,6.9,-,N/A,,Scattered Clouds,320,2014-02-09 13:58:00
4:08 AM,66.2,64.4,94,29.94,10.0,NW,5.8,-,N/A,,Mostly Cloudy,320,2014-02-09 14:08:00
4:33 AM,66.2,64.4,94,29.94,10.0,NW,5.8,-,N/A,,Scattered Clouds,320,2014-02-09 14:33:00
4:38 AM,66.2,64.4,94,29.94,10.0,NW,5.8,-,N/A,,Mostly Cloudy,320,2014-02-09 14:38:00
4:58 AM,66.0,64.0,93,29.92,10.0,NW,5.8,-,N/A,,Mostly Cloudy,320,2014-02-09 14:58:00
5:53 AM,66.2,64.4,94,29.95,10.0,NNW,4.6,-,N/A,,Overcast,330,2014-02-09 15:53:00
5:58 AM,66.4,64.2,93,29.94,10.0,NNW,4.6,-,N/A,,Overcast,340,2014-02-09 15:58:00
6:28 AM,66.2,64.4,94,29.96,10.0,North,4.6,-,N/A,,Mostly Cloudy,10,2014-02-09 16:28:00
6:48 AM,66.2,64.4,94,29.96,10.0,NE,1.2,-,N/A,,Overcast,50,2014-02-09 16:48:00
6:50 AM,66.2,64.4,94,29.96,10.0,Variable,1.2,-,N/A,Rain,Light Rain,0,2014-02-09 16:50:00
6:55 AM,66.2,64.4,94,29.96,10.0,NNW,2.3,-,N/A,,Mostly Cloudy,330,2014-02-09 16:55:00
6:58 AM,66.2,64.4,94,29.94,10.0,NNW,2.3,-,0.00,,Overcast,330,2014-02-09 16:58:00
7:08 AM,66.2,64.4,94,29.96,10.0,NNE,1.2,-,N/A,,Overcast,20,2014-02-09 17:08:00
7:10 AM,66.2,64.4,94,29.96,10.0,Variable,1.2,-,N/A,,Light Drizzle,0,2014-02-09 17:10:00
7:20 AM,66.2,64.4,94,29.96,10.0,Calm,Calm,-,N/A,Rain,Light Rain,0,2014-02-09 17:20:00
7:25 AM,66.2,64.4,94,29.96,10.0,NNW,2.3,-,N/A,Rain,Light Rain,330,2014-02-09 17:25:00
7:27 AM,66.2,64.4,94,29.96,10.0,Calm,Calm,-,N/A,,Mostly Cloudy,0,2014-02-09 17:27:00
7:34 AM,66.2,64.4,94,29.96,10.0,West,1.2,-,N/A,Rain,Light Rain,270,2014-02-09 17:34:00
7:45 AM,66.2,64.4,94,29.96,10.0,West,2.3,-,N/A,,Mostly Cloudy,280,2014-02-09 17:45:00
7:50 AM,68.0,66.2,94,29.96,10.0,West,4.6,-,N/A,,Scattered Clouds,280,2014-02-09 17:50:00
7:58 AM,67.1,65.3,94,29.94,10.0,WNW,3.5,-,0.00,,Scattered Clouds,290,2014-02-09 17:58:00
8:14 AM,68.0,66.2,94,29.96,10.0,Calm,Calm,-,N/A,Rain,Light Rain,0,2014-02-09 18:14:00
8:54 AM,71.6,68.0,88,29.97,10.0,SSW,2.3,-,N/A,,Scattered Clouds,210,2014-02-09 18:54:00
8:55 AM,71.6,68.0,88,29.97,10.0,WSW,1.2,-,N/A,,Light Drizzle,240,2014-02-09 18:55:00
8:58 AM,71.6,68.0,88,29.95,10.0,Calm,Calm,-,0.00,,Light Drizzle,0,2014-02-09 18:58:00
9:03 AM,71.6,68.0,88,29.97,10.0,South,1.2,-,N/A,,Light Drizzle,190,2014-02-09 19:03:00
9:27 AM,71.6,68.0,88,29.98,10.0,SE,3.5,-,N/A,,Mostly Cloudy,130,2014-02-09 19:27:00
9:42 AM,73.4,68.0,83,29.98,10.0,SSW,3.5,-,N/A,,Scattered Clouds,200,2014-02-09 19:42:00
9:52 AM,73.4,68.0,83,29.98,10.0,SSE,4.6,-,N/A,,Mostly Cloudy,160,2014-02-09 19:52:00
9:58 AM,73.9,67.3,80,29.96,10.0,Variable,6.9,-,0.00,,Mostly Cloudy,0,2014-02-09 19:58:00
10:18 AM,75.2,66.2,73,29.98,10.0,East,8.1,-,N/A,,Scattered Clouds,100,2014-02-09 20:18:00
10:58 AM,75.6,65.1,70,29.96,10.0,SE,6.9,-,N/A,,Mostly Cloudy,130,2014-02-09 20:58:00
11:08 AM,75.2,66.2,73,29.97,10.0,Variable,5.8,-,N/A,,Overcast,0,2014-02-09 21:08:00
11:13 AM,75.2,66.2,73,29.97,10.0,East,9.2,-,N/A,,Overcast,100,2014-02-09 21:13:00
11:33 AM,77.0,66.2,69,29.96,10.0,ESE,8.1,-,N/A,,Overcast,120,2014-02-09 21:33:00
11:38 AM,77.0,66.2,69,29.96,10.0,ESE,10.4,-,N/A,,Overcast,110,2014-02-09 21:38:00
11:53 AM,77.0,66.2,69,29.96,10.0,ESE,9.2,-,N/A,,Overcast,120,2014-02-09 21:53:00
11:58 AM,76.3,66.0,70,29.94,10.0,ESE,8.1,-,N/A,,Overcast,110,2014-02-09 21:58:00
12:43 PM,78.8,66.2,65,29.93,10.0,SE,6.9,-,N/A,,Mostly Cloudy,130,2014-02-09 22:43:00
12:58 PM,77.9,67.1,69,29.90,10.0,ESE,6.9,-,N/A,,Mostly Cloudy,110,2014-02-09 22:58:00
1:03 PM,78.8,68.0,69,29.92,10.0,SSE,5.8,-,N/A,,Mostly Cloudy,160,2014-02-09 23:03:00
1:08 PM,78.8,68.0,69,29.91,10.0,ESE,8.1,-,N/A,,Overcast,120,2014-02-09 23:08:00
1:18 PM,77.0,66.2,69,29.90,10.0,SE,8.1,-,N/A,,Overcast,140,2014-02-09 23:18:00
1:28 PM,77.0,66.2,69,29.90,10.0,ESE,8.1,-,N/A,,Overcast,120,2014-02-09 23:28:00
1:38 PM,77.0,66.2,69,29.89,10.0,SE,8.1,-,N/A,,Overcast,130,2014-02-09 23:38:00
1:48 PM,77.0,66.2,69,29.89,10.0,Variable,5.8,-,N/A,,Overcast,0,2014-02-09 23:48:00
1:58 PM,77.0,67.1,71,29.86,10.0,SE,6.9,-,N/A,,Overcast,140,2014-02-09 23:58:00
2:08 PM,77.0,66.2,69,29.88,10.0,SE,8.1,-,N/A,,Mostly Cloudy,140,2014-02-10 00:08:00
2:18 PM,77.0,66.2,69,29.88,10.0,SE,6.9,-,N/A,,Mostly Cloudy,130,2014-02-10 00:18:00
2:58 PM,77.7,66.7,69,29.86,10.0,SE,5.8,-,N/A,,Overcast,130,2014-02-10 00:58:00
3:23 PM,77.0,66.2,69,29.88,10.0,ESE,4.6,-,N/A,,Overcast,120,2014-02-10 01:23:00
3:58 PM,76.5,66.9,72,29.86,10.0,Variable,4.6,-,N/A,,Overcast,0,2014-02-10 01:58:00
4:43 PM,75.2,66.2,73,29.89,10.0,Variable,4.6,-,N/A,,Light Drizzle,0,2014-02-10 02:43:00
4:52 PM,75.2,66.2,73,29.90,10.0,South,5.8,-,N/A,,Overcast,190,2014-02-10 02:52:00
4:57 PM,75.2,66.2,73,29.90,10.0,Variable,4.6,-,N/A,,Overcast,0,2014-02-10 02:57:00
4:58 PM,75.2,66.2,73,29.88,10.0,Variable,4.6,-,0.00,,Overcast,0,2014-02-10 02:58:00
5:38 PM,73.4,66.2,78,29.91,10.0,South,4.6,-,N/A,,Scattered Clouds,180,2014-02-10 03:38:00
5:58 PM,73.8,66.7,79,29.89,10.0,South,4.6,-,N/A,,Mostly Cloudy,180,2014-02-10 03:58:00
6:18 PM,73.4,66.2,78,29.92,10.0,ESE,1.2,-,N/A,Rain,Light Rain,110,2014-02-10 04:18:00
6:58 PM,71.8,66.9,85,29.91,10.0,South,2.3,-,0.00,,Light Drizzle,170,2014-02-10 04:58:00
7:02 PM,71.6,66.2,83,29.93,10.0,SSW,2.3,-,N/A,,Overcast,200,2014-02-10 05:02:00
7:12 PM,71.6,66.2,83,29.94,10.0,Calm,Calm,-,N/A,Rain,Light Rain,0,2014-02-10 05:12:00
7:17 PM,69.8,66.2,88,29.94,10.0,Calm,Calm,-,N/A,,Light Drizzle,0,2014-02-10 05:17:00
7:35 PM,71.6,68.0,88,29.94,10.0,ESE,3.5,-,N/A,,Overcast,110,2014-02-10 05:35:00
7:58 PM,71.1,67.1,87,29.94,10.0,SSE,1.2,-,0.00,,Overcast,160,2014-02-10 05:58:00
8:18 PM,69.8,66.2,88,29.97,10.0,SSE,3.5,-,N/A,,Overcast,150,2014-02-10 06:18:00
8:43 PM,69.8,66.2,88,29.97,10.0,Calm,Calm,-,N/A,,Mostly Cloudy,0,2014-02-10 06:43:00
8:58 PM,69.1,66.2,91,29.95,10.0,Calm,Calm,-,N/A,,Scattered Clouds,0,2014-02-10 06:58:00
9:58 PM,66.2,64.2,93,29.96,10.0,Calm,Calm,-,N/A,,Clear,0,2014-02-10 07:58:00
10:58 PM,64.9,63.3,94,29.97,10.0,North,2.3,-,N/A,,Clear,10,2014-02-10 08:58:00
11:58 PM,63.3,62.1,96,29.95,10.0,Calm,Calm,-,N/A,,Clear,0,2014-02-10 09:58:00